Regional Weather Roundup
Issued by NWS Grand Forks, ND

Home | Current Version | Previous Version | Graphics & Text | Print | Product List | Glossary On
Versions: 1 2 3 4 5 6 7 8 9 10 11 12 13 14 15 16 17 18 19 20 21 22 23 24 25 26 27 28 29 30 31 32 33 34 35 36 37 38 39 40 41 42 43 44 45 46 47 48 49 50
000
ASUS43 KFGF 012010
RWRFGF
PRAIRIE TO PINES  WEATHER ROUNDUP
NATIONAL WEATHER SERVICE EASTERN NORTH DAKOTA/GRAND FORKS ND
300 PM CDT MON SEP 01 2014

 **SATELLITE DATA USED TO AUGMENT SKY COVER AT AUTOMATED STATIONS**
 *****  WEATHER ACROSS EASTERN NORTH DAKOTA  *****

CITY           SKY/WX    TMP DP  RH WIND       PRES   REMARKS
GRAND FORKS    PTSUNNY   72  56  57 SW7       29.70R
GRAND FRKS AFB PTSUNNY   72  55  56 N9        29.71S
GRAND FRKS NWS   N/A     68 N/A N/A W3          N/A
DEVILS LAKE    PTSUNNY   66  54  63 NW12      29.74R
FARGO          SUNNY     76  55  48 W10       29.72F
WAHPETON ARPT  MOCLDY    73  55  53 W14       29.75F
$$

 ***** WEATHER ACROSS CENTRAL AND WESTERN NORTH DAKOTA  *****

CITY           SKY/WX    TMP DP  RH WIND       PRES   REMARKS
BISMARCK       MOSUNNY   74  50  42 N14       29.82S
MINOT          MOSUNNY   71  42  35 W14G24    29.79S
JAMESTOWN      PTSUNNY   73  55  53 W15       29.76F
MINOT AFB      SUNNY     71  45  39 NW16G24   29.79R
GARRISON         N/A     70  45  40 NW10G21   29.81F
WILLISTON      PTSUNNY   72  40  31 W7G17     29.83F
DICKINSON      MOSUNNY   70  45  40 W10G20    29.85F
HETTINGER      MOSUNNY   71  45  39 W12       29.89S
$$

 *****  OTHER AIRPORT OBSERVATIONS IN OUR AREA  *****

CITY           SKY/WX    TMP DP  RH WIND       PRES   REMARKS
WALHALLA         N/A     59  59 100 SW7       29.72S
GRAFTON AIRPOR MOCLDY    70  52  52 W28G36    29.70R THUNDER
VALLEY CITY AR FAIR      73  55  53 NW10      29.75F
CANDO          FAIR      70  48  46 NW14      29.76S
CAVALIER APRT  TSTM      63  55  77 N12G17    29.73R
GWINNER        PTCLDY    77  55  47 W6G16     29.77F
SHEYENNE NWR     N/A     75  55  49 W9        29.95
ROLLA          FAIR      68  48  49 W15       29.77S
 ***** THE ABOVE OBSERVATIONS ARE NON NWS ARE NOT QUALITY
       CONTROLLED AND MAY MIS-REPORT RAIN FOR SNOW...
$$

  *****  WEATHER ACROSS NORTHERN MINNESOTA  *****

CITY           SKY/WX    TMP DP  RH WIND       PRES   REMARKS
FLAG ISLAND    SUNNY     70  52  52 NW6       29.64F
WARROAD        PTSUNNY   72  55  56 N6        29.67F
ROSEAU         MOSUNNY   73  55  53 W8        29.67F
HALLOCK        PTSUNNY   70  55  60 NW13      29.68R
THF RVR FALLS  MOSUNNY   72  52  49 W7        29.70F
BAUDETTE       SUNNY     70  53  54 NW8       29.67S
WASKISH        MOSUNNY   72  55  56 W9        29.69S
CROOKSTON      RAIN      66  57  72 W8        29.72R
$$
  *****  WEATHER ACROSS CENTRAL AND WEST MINNESOTA  *****

CITY           SKY/WX    TMP DP  RH WIND       PRES   REMARKS
FOSSTON        MOSUNNY   73  52  46 W8        29.73F
BEMIDJI        MOSUNNY   71  49  45 W14G21    29.72F
PARK RAPIDS    SUNNY     73  49  42 W14G21    29.74S
ELBOW LAKE     FAIR      69  57  65 W5        29.77F
WADENA         SUNNY     72  54  53 NW10      29.76S
DETROIT LAKES  MOSUNNY   72  54  53 W8        29.77S
MOORHEAD       MOSUNNY   75  57  53 W13       29.73F
FERGUS FALLS   PTSUNNY   72  55  56 W8        29.75F
MORRIS MN      SUNNY     75  55  50 W8        29.78F
STAPLES        SUNNY     72  50  46 W13       29.76R
$$
  *****  WEATHER ELSEWHERE ACROSS MINNESOTA  *****

CITY           SKY/WX    TMP DP  RH WIND       PRES   REMARKS
DULUTH         PTSUNNY   71  54  54 W17       29.68R
INTRNTL FALLS  MOSUNNY   67  54  63 NW12      29.65F
ELY            LGT RAIN  61  57  88 W9G22     29.66R
CLOQUET        MOSUNNY   72  52  49 W13       29.69R
WHEATON        SUNNY     73  55  53 SW9       29.79S
BRAINERD       SUNNY     72  50  45 NW10      29.74R
HIBBING        MOSUNNY   71  50  47 W10       29.68R
ALEXANDRIA     MOSUNNY   73  56  54 NW12      29.80R
SAINT CLOUD    PTSUNNY   78  55  44 W16       29.75S
MINNEAPOLIS    MOSUNNY   76  55  48 W16       29.74R
$$

  *****  WEATHER ACROSS SOUTH DAKOTA  *****

CITY           SKY/WX    TMP DP  RH WIND       PRES   REMARKS
SIOUX FALLS    MOSUNNY   76  59  55 NW12      29.85R
BROOKINGS      NOT AVBL
WATERTOWN      SUNNY     75  54  47 W12       29.82F
HURON          PTSUNNY   76  52  43 SW9       29.82F
SISSETON         N/A     77  55  46 NW12G20   29.76F
ABERDEEN       MOSUNNY   76  53  44 W9G20     29.79F
MITCHELL       PTSUNNY   77  59  53 W7        29.85F
PIERRE         PTSUNNY   75  53  46 N9        29.81F
MOBRIDGE       SUNNY     74  53  48 NW12      29.80S
RAPID CITY     TSTM      60  47  61 W14       29.96R
$$

  *****  SOME WEATHER IN NEARBY STATES *****

CITY           SKY/WX    TMP DP  RH WIND       PRES   REMARKS
GLASGOW MT     MOSUNNY   70  46  42 VRB6      29.85F
GREAT FALLS MT PTSUNNY   70  36  28 SW18G24   29.93F
CHEYENNE WY    PTSUNNY   69  31  24 W16       30.05F
SCOTTSBLUFF NE SUNNY     79  36  21 W17G23    29.93F
OMAHA NE       PTSUNNY   78  60  53 NW6       29.88R
DES MOINES IA  MOSUNNY   80  62  54 W14       29.82R
DAVENPORT IA   MOSUNNY   79  67  66 W18G24    29.79S
CHICAGO IL     PTSUNNY   82  63  52 SW15G24   29.76F
EAU CLAIRE WI  MOSUNNY   76  57  51 W13G20    29.70S
LA CROSSE WI   MOSUNNY   76  65  68 VRB5      29.72F
$$

  *****  SOME NATIONAL WEATHER *****

CITY           SKY/WX    TMP DP  RH WIND       PRES   REMARKS
LA GUARDIA NY  PTSUNNY   87  71  58 S12       29.93F HX  93
RALEIGH NC     PTSUNNY   90  67  46 W7        30.05F HX  93
ATLANTA GA     PTSUNNY   90  70  51 CALM      30.09F HX  95
NEW ORLEANS LA PTSUNNY   90  76  63 SE10      30.01F HX 101
OKLAHOMA CITY  MOSUNNY   96  69  41 S21G26    29.81F HX 102
ALBUQUERQUE NM MOSUNNY   88  39  17 NW8       30.08F
SALT LAKE CITY MOSUNNY   76  36  23 VRB5      30.08F
LOS ANGELES CA MOSUNNY   78  64  61 SW10      29.82F
BOISE ID       SUNNY     71  38  29 W8        30.08F
SEATTLE WA     MOSUNNY   69  52  54 SW8       30.09F
$$

*** WEATHER ACROSS MANITOBA...SASKATCHEWAN AND ONTARIO ***
                ***ONTARIO***

CITY           SKY/WX    TMP DP  RH WIND       PRES   REMARKS
GERALDTON      PTSUNNY   68  63  83 SW9       29.46F
THUNDER BAY    CLOUDY    70  61  73 W9        29.52F
SIOUX LOOKOUT  PTSUNNY   64  54  68 NW12G18   29.58R
TORONTO        PTSUNNY   84  72  65 S13G22    29.83F
BIG TROUT LK   PTSUNNY   61  52  72 NW7       29.44S
PICKLE LAKE    CLOUDY    59  55  88 W13G25    29.49R
DRYDEN         MOSUNNY   68  54  60 NW9G21    29.61R
KENORA         PTSUNNY   68  52  56 NW7       29.64F
$$
                *** MANITOBA***

CITY           SKY/WX    TMP DP  RH WIND       PRES   REMARKS
BRANDON        PTSUNNY   72  46  40 W16G28    29.71F
DAUPHIN        SUNNY     70  50  49 W17G32    29.65F
ISLAND LAKE    MOSUNNY   70  52  52 S6        29.51F
PILOT MOUND      N/A     68  48  49 W14G21      N/A
THE PAS        PTSUNNY   61  50  67 NW12      29.61F
THOMPSON       MOSUNNY   64  48  55 NW10      29.53S
WINNIPEG       MOSUNNY   73  50  43 W15G22    29.65F
CHURCHILL      CLOUDY    52  50  93 N8        29.50S
GILLAM         MOSUNNY   63  57  82 NW7       29.48F
$$
                ***SASKATCHEWAN***

CITY           SKY/WX    TMP DP  RH WIND       PRES   REMARKS
ESTEVAN        PTSUNNY   72  46  40 W10       29.80F
KINDERSLEY     PTSUNNY   68  39  34 W12G20    29.78F
LLOYDMINSTER   PTSUNNY   64  39  39 W14G25    29.74S
PRINCE ALBERT  NOT AVBL
REGINA         MOSUNNY   68  43  40 W17G25    29.79S
YORKTON        PTSUNNY   66  45  45 W16G23    29.72S
N. BATTLEFORD  PTSUNNY   70  45  40 W12G21    29.75F
LA RONGE       PTSUNNY   63  48  59 NW7       29.63F
SASKATOON      PTSUNNY   68  43  40 W12       29.76F
SWIFT CURRENT  PTSUNNY   66  34  30 W14G20    29.81F
$$
NOTE: THESE ARE AUTOMATED STATIONS WITH LIMITED QUALITY CONTROL
      "FAIR" INDICATES FEW OR NO CLOUDS BELOW 12,000 FEET WITH NO
      SIGNIFICANT WEATHER AND/OR OBSTRUCTIONS TO VISIBILITY.
      SKY/WX - SKY CONDITION AND SIGNIFICANT WEATHER.
      TMP - AIR TEMPERATURE.    DP   - DEWPOINT TEMPERATURE.
      RH  - RELATIVE HUMIDITY.  PRES - PRESSURE.
      HX  - HEAT INDEX.         WCI  - WIND CHILL INDEX.
$



USA.gov is the U.S. government's official web portal to all federal, state and local government web resources and services.